OneWeb SL0065

operational
NORAD ID: 45164 Int'l Des: 2020-008 Owner: ONEWEB Country: UK Constellation: oneweb
LEOCIRCULARPOLARONEWEB_TYPE

About OneWeb SL0065

Description loading...

Live Position

Loading 3D Globe...

Upcoming Passes

Altitude History

Altitude vs Time

uPlot chart will show altitude changes over time

Two-Line Element Set

1 45164U 20008AK 26062.50839363 .00000592 00000-0 16582-2 0 9993
2 45164 87.8762 57.3156 0001823 76.8968 283.2363 13.10373540294048
Epoch: Mar 3, 2026 • Age: 21 hours

Current Status

Altitude 1241.2 km
Velocity 7.23 km/s
Sub-Earth Point -48.35°S, 63.57°W
Launch Date Feb 6, 2020
Age 6 years
Type internet

Technical Details

Classification Payload
Mass 148.00 kg
Dry Mass 140.00 kg
Total Mass 148.00 kg
Length 1.30 m
Diameter 1.00 m
Span 5.00 m
Shape Trapezoid+2 pan
Manufacturer ONEWUS
Bus Type ARROW
Phase Status In Orbit
Owner/State ONEWEB/UK

Large Constellations

Loading constellations...